When you browse on this site, cookies collect data to enhance your experience and personalize the content and advertising you see.
Visit our Privacy Policy to learn more. By continuing to use the site, you agree to this use of cookies and data.
  • în România
  • Lista ţărilor
  • Pe 7 zile
  • Temperatura apei
  • Hartă satelitară
  • Meteo pe hartă
  • Widget-uri
  • user-avatar
    Intrare

    Meteo pe oră la Tanga

    Astăzi, 20 Ianuarie, Duminică

    Timp Temperatura Precipitaţii Vânt Presiune Umiditate
    00:00 +27°C° 0 mm 4 m/s 757 mmHg 87%
    01:00 +27°C° 0 mm 5 m/s 757 mmHg 87%
    02:00 +27°C° 0 mm 5 m/s 757 mmHg 87%
    03:00 +27°C° 0 mm 5 m/s 757 mmHg 88%
    04:00 +27°C° 0 mm 5 m/s 758 mmHg 88%
    05:00 +26°C° 0 mm 5 m/s 758 mmHg 87%
    06:00 +26°C° 0 mm 5 m/s 758 mmHg 86%
    07:00 +28°C° 0 mm 5 m/s 758 mmHg 75%
    08:00 +32°C° 0 mm 5 m/s 758 mmHg 64%
    09:00 +34°C° 0 mm 5 m/s 759 mmHg 53%
    10:00 +36°C° 0 mm 6 m/s 758 mmHg 47%
    11:00 +38°C° 0 mm 6 m/s 758 mmHg 41%
    12:00 +40°C° 0 mm 7 m/s 757 mmHg 35%
    13:00 +40°C° 0 mm 7 m/s 757 mmHg 36%
    14:00 +40°C° 0 mm 8 m/s 756 mmHg 36%
    15:00 +40°C° 0 mm 9 m/s 755 mmHg 37%
    16:00 +38°C° 0 mm 9 m/s 755 mmHg 43%
    17:00 +37°C° 0 mm 9 m/s 755 mmHg 50%
    18:00 +34°C° 0 mm 9 m/s 755 mmHg 56%
    19:00 +33°C° 0 mm 8 m/s 756 mmHg 64%
    20:00 +31°C° 0 mm 8 m/s 756 mmHg 72%
    21:00 +29°C° 0 mm 7 m/s 757 mmHg 79%
    22:00 +29°C° 0 mm 7 m/s 757 mmHg 81%
    23:00 +28°C° 0 mm 6 m/s 757 mmHg 82%

    Mâine, 21 Ianuarie, Luni

    Timp Temperatura Precipitaţii Vânt Presiune Umiditate
    00:00 +28°C° 0 mm 6 m/s 758 mmHg 84%
    01:00 +27°C° 0 mm 6 m/s 757 mmHg 83%
    02:00 +27°C° 0 mm 5 m/s 757 mmHg 83%
    03:00 +27°C° 0 mm 5 m/s 757 mmHg 83%
    04:00 +27°C° 0 mm 5 m/s 757 mmHg 82%
    05:00 +26°C° 0 mm 5 m/s 757 mmHg 81%
    06:00 +26°C° 0 mm 5 m/s 758 mmHg 80%
    07:00 +28°C° 0 mm 5 m/s 758 mmHg 70%
    08:00 +32°C° 0 mm 5 m/s 758 mmHg 61%
    09:00 +34°C° 0 mm 6 m/s 759 mmHg 51%
    10:00 +36°C° 0 mm 6 m/s 758 mmHg 46%
    11:00 +38°C° 0 mm 7 m/s 758 mmHg 41%
    12:00 +40°C° 0 mm 7 m/s 758 mmHg 35%
    13:00 +40°C° 0 mm 7 m/s 757 mmHg 36%
    14:00 +40°C° 0 mm 8 m/s 756 mmHg 36%
    15:00 +41°C° 0 mm 8 m/s 755 mmHg 36%
    16:00 +39°C° 0 mm 8 m/s 755 mmHg 44%
    17:00 +37°C° 0 mm 9 m/s 755 mmHg 52%
    18:00 +34°C° 0 mm 9 m/s 755 mmHg 60%
    19:00 +32°C° 0 mm 8 m/s 756 mmHg 67%
    20:00 +30°C° 0 mm 7 m/s 756 mmHg 74%
    21:00 +29°C° 0 mm 5 m/s 757 mmHg 81%
    22:00 +28°C° 0 mm 5 m/s 757 mmHg 82%
    23:00 +28°C° 0 mm 5 m/s 758 mmHg 84%

    Poimâine, 22 Ianuarie, Marţi

    Timp Temperatura Precipitaţii Vânt Presiune Umiditate
    00:00 +28°C° 0 mm 5 m/s 758 mmHg 85%
    01:00 +27°C° 0 mm 5 m/s 758 mmHg 86%
    02:00 +27°C° 0 mm 5 m/s 757 mmHg 86%
    03:00 +27°C° 0 mm 5 m/s 757 mmHg 87%
    04:00 +27°C° 0 mm 5 m/s 757 mmHg 87%
    05:00 +27°C° 0 mm 5 m/s 757 mmHg 86%
    06:00 +27°C° 0 mm 5 m/s 757 mmHg 86%
    07:00 +28°C° 0 mm 5 m/s 758 mmHg 78%
    08:00 +30°C° 0 mm 6 m/s 758 mmHg 71%
    09:00 +32°C° 0 mm 6 m/s 759 mmHg 63%
    10:00 +34°C° 0 mm 6 m/s 758 mmHg 57%
    11:00 +35°C° 0 mm 7 m/s 758 mmHg 51%
    12:00 +38°C° 0 mm 7 m/s 757 mmHg 45%
    13:00 +38°C° 0 mm 7 m/s 756 mmHg 44%
    14:00 +39°C° 0 mm 7 m/s 756 mmHg 42%
    15:00 +40°C° 0 mm 8 m/s 755 mmHg 40%
    16:00 +38°C° 0 mm 8 m/s 755 mmHg 46%
    17:00 +37°C° 0 mm 9 m/s 755 mmHg 52%
    18:00 +34°C° 0 mm 9 m/s 755 mmHg 58%
    19:00 +33°C° 0 mm 8 m/s 755 mmHg 65%
    20:00 +30°C° 0 mm 7 m/s 756 mmHg 72%
    21:00 +29°C° 0 mm 6 m/s 757 mmHg 79%
    22:00 +29°C° 0 mm 6 m/s 757 mmHg 81%
    23:00 +29°C° 0 mm 6 m/s 757 mmHg 82%

    23 Ianuarie, Miercuri

    Timp Temperatura Precipitaţii Vânt Presiune Umiditate
    00:00 +28°C° 0 mm 6 m/s 757 mmHg 84%
    01:00 +28°C° 0 mm 6 m/s 757 mmHg 84%
    02:00 +28°C° 0 mm 6 m/s 756 mmHg 84%
    03:00 +27°C° 0 mm 5 m/s 756 mmHg 84%
    04:00 +27°C° 0 mm 5 m/s 756 mmHg 83%
    05:00 +27°C° 0 mm 5 m/s 757 mmHg 83%
    06:00 +27°C° 0 mm 5 m/s 757 mmHg 82%
    07:00 +29°C° 0 mm 6 m/s 757 mmHg 75%
    08:00 +30°C° 0 mm 6 m/s 758 mmHg 68%
    09:00 +33°C° 0 mm 7 m/s 758 mmHg 61%
    10:00 +34°C° 0 mm 7 m/s 758 mmHg 55%
    11:00 +36°C° 0 mm 7 m/s 758 mmHg 48%
    12:00 +39°C° 0 mm 7 m/s 757 mmHg 42%
    13:00 +39°C° 0 mm 8 m/s 757 mmHg 42%
    14:00 +39°C° 0 mm 8 m/s 756 mmHg 41%
    15:00 +40°C° 0 mm 9 m/s 755 mmHg 40%
    16:00 +38°C° 0 mm 9 m/s 755 mmHg 47%
    17:00 +35°C° 0 mm 9 m/s 755 mmHg 53%
    18:00 +34°C° 0 mm 9 m/s 755 mmHg 59%
    19:00 +33°C° 0 mm 9 m/s 756 mmHg 65%
    20:00 +32°C° 0 mm 9 m/s 757 mmHg 70%
    21:00 +29°C° 0 mm 8 m/s 758 mmHg 75%
    22:00 +29°C° 0 mm 8 m/s 758 mmHg 77%
    23:00 +29°C° 0 mm 7 m/s 758 mmHg 78%

    24 Ianuarie, Joi

    Timp Temperatura Precipitaţii Vânt Presiune Umiditate
    00:00 +28°C° 0 mm 7 m/s 758 mmHg 80%
    01:00 +28°C° 0 mm 7 m/s 758 mmHg 81%
    02:00 +28°C° 0 mm 6 m/s 757 mmHg 81%
    03:00 +27°C° 0 mm 6 m/s 757 mmHg 82%
    04:00 +27°C° 0 mm 6 m/s 757 mmHg 82%
    05:00 +27°C° 0 mm 6 m/s 757 mmHg 82%
    06:00 +26°C° 0 mm 5 m/s 758 mmHg 81%
    07:00 +28°C° 0 mm 6 m/s 758 mmHg 74%
    08:00 +30°C° 0 mm 6 m/s 759 mmHg 67%
    09:00 +32°C° 0 mm 7 m/s 759 mmHg 60%
    10:00 +34°C° 0 mm 7 m/s 759 mmHg 54%
    11:00 +36°C° 0 mm 7 m/s 758 mmHg 48%
    12:00 +38°C° 0 mm 7 m/s 758 mmHg 42%
    13:00 +38°C° 0 mm 8 m/s 757 mmHg 42%
    14:00 +39°C° 0 mm 8 m/s 756 mmHg 41%
    15:00 +39°C° 0 mm 8 m/s 755 mmHg 40%
    16:00 +37°C° 0 mm 8 m/s 755 mmHg 47%
    17:00 +35°C° 0 mm 8 m/s 756 mmHg 53%
    18:00 +33°C° 0 mm 9 m/s 756 mmHg 59%
    19:00 +32°C° 0 mm 8 m/s 756 mmHg 65%
    20:00 +31°C° 0 mm 8 m/s 757 mmHg 70%
    21:00 +29°C° 0 mm 7 m/s 758 mmHg 75%
    22:00 +29°C° 0 mm 7 m/s 758 mmHg 77%
    23:00 +28°C° 0 mm 6 m/s 758 mmHg 78%

    25 Ianuarie, Vineri

    Timp Temperatura Precipitaţii Vânt Presiune Umiditate
    00:00 +28°C° 0 mm 6 m/s 758 mmHg 80%
    01:00 +27°C° 0 mm 5 m/s 758 mmHg 81%
    02:00 +27°C° 0 mm 5 m/s 758 mmHg 81%
    03:00 +27°C° 0 mm 5 m/s 758 mmHg 82%
    04:00 +27°C° 0 mm 5 m/s 758 mmHg 81%
    05:00 +26°C° 0 mm 5 m/s 758 mmHg 80%
    06:00 +26°C° 0 mm 5 m/s 759 mmHg 79%
    07:00 +28°C° 0 mm 5 m/s 759 mmHg 72%
    08:00 +30°C° 0 mm 5 m/s 759 mmHg 64%
    09:00 +33°C° 0 mm 6 m/s 760 mmHg 57%
    10:00 +35°C° 0 mm 6 m/s 759 mmHg 50%
    11:00 +38°C° 0 mm 6 m/s 759 mmHg 44%
    12:00 +40°C° 0 mm 6 m/s 759 mmHg 38%
    13:00 +40°C° 0 mm 6 m/s 758 mmHg 39%
    14:00 +40°C° 0 mm 7 m/s 757 mmHg 39%
    15:00 +40°C° 0 mm 8 m/s 756 mmHg 40%
    16:00 +38°C° 0 mm 8 m/s 756 mmHg 49%
    17:00 +35°C° 0 mm 8 m/s 756 mmHg 57%
    18:00 +33°C° 0 mm 8 m/s 756 mmHg 66%
    19:00 +32°C° 0 mm 7 m/s 757 mmHg 71%
    20:00 +29°C° 0 mm 6 m/s 757 mmHg 76%
    21:00 +28°C° 0 mm 5 m/s 758 mmHg 82%
    22:00 +28°C° 0 mm 5 m/s 758 mmHg 84%
    23:00 +27°C° 0 mm 4 m/s 758 mmHg 86%
    Arată mai mult